Weather History for Martha's Vineyard, MA

Change the Weather History Date:

Monday, January 28, 2013

  Actual Average Record
Temperature  
Mean Temperature 22 °F -  
Max Temperature 35 °F 38 °F 54 °F (1974)
Min Temperature 10 °F 22 °F -2 °F (1961)
Degree Days  
Heating Degree Days 42    
Moisture  
Dew Point 24 °F    
Average Humidity 84    
Maximum Humidity 100    
Minimum Humidity 36    
Precipitation  
Precipitation 0.11 in - - ()
Sea Level Pressure  
Sea Level Pressure 30.19 in    
Wind  
Wind Speed 3 mph (ESE)    
Max Wind Speed 8 mph    
Max Gust Speed -    
Visibility 5 miles    
Events Rain , Snow    
Averages and records for this station are not official NWS values.
T = Trace of Precipitation, MM = Missing Value Source: NWS Daily Summary

Daily Weather History Graph

Daily Weather History Graph

Search for Another Location

Airport:

Trip Planner

Search our weather history database for the weather conditions in past years. The results will help you decide how hot, cold, wet, or windy it might be!

Date:

Astronomy

Jan. 28, 2013 Rise Set
Actual Time 6:57 AM EST 4:53 PM EST
Civil Twilight 6:27 AM EST 5:23 PM EST
Nautical Twilight 5:54 AM EST 5:56 PM EST
Astronomical Twilight 5:22 AM EST 6:29 PM EST
Moon 6:47 PM EST (1/28) 7:19 AM EST (1/28)
Length of Visible Light 10h 55m
Length of Day
9h 56m
Full, 98% of the Moon is Illuminated
Jan 28
Full
Feb 3
Last Quarter
Feb 10
New
Feb 17
First Quarter
Feb 25
Full

Hourly Weather History & Observations

Time (EST) Temp. Windchill Dew Point Humidity Pressure Visibility Wind Dir Wind Speed Gust Speed Precip Events Conditions
12:53 AM 21.9 °F 14.5 °F 5.0 °F 48% 30.45 in 10.0 mi NW 5.8 mph - N/A   Clear
1:53 AM 18.0 °F - 3.9 °F 54% 30.45 in 10.0 mi Calm Calm - N/A   Clear
2:53 AM 16.0 °F - 3.9 °F 59% 30.45 in 10.0 mi Calm Calm - N/A   Clear
3:53 AM 12.9 °F 6.9 °F 3.9 °F 67% 30.45 in 10.0 mi WNW 3.5 mph - N/A   Clear
4:53 AM 14.0 °F - 5.0 °F 67% 30.43 in 10.0 mi Calm Calm - N/A   Scattered Clouds
5:53 AM 10.9 °F 2.9 °F 3.0 °F 70% 30.43 in 10.0 mi WNW 4.6 mph - N/A   Clear
6:53 AM 12.9 °F - 6.1 °F 74% 30.42 in 10.0 mi Calm Calm - N/A   Partly Cloudy
7:53 AM 19.0 °F - 10.9 °F 71% 30.42 in 10.0 mi Calm Calm - N/A   Clear
8:53 AM 27.0 °F - 12.9 °F 56% 30.42 in 10.0 mi Calm Calm - N/A   Mostly Cloudy
9:53 AM 28.9 °F - 5.0 °F 36% 30.41 in 10.0 mi Calm Calm - N/A   Mostly Cloudy
10:53 AM 30.9 °F - 9.0 °F 40% 30.39 in 10.0 mi Calm Calm - N/A   Overcast
11:53 AM 30.9 °F 25.2 °F 14.0 °F 50% 30.35 in 10.0 mi SSW 5.8 mph - N/A   Overcast
12:53 PM 32.0 °F 27.5 °F 18.0 °F 56% 30.30 in 10.0 mi South 4.6 mph - N/A   Overcast
1:53 PM 35.1 °F 29.3 °F 18.0 °F 50% 30.25 in 10.0 mi WSW 6.9 mph - N/A   Overcast
2:53 PM 32.0 °F 26.4 °F 26.1 °F 79% 30.23 in 3.0 mi West 5.8 mph - 0.00 in Snow Light Snow
3:15 PM 32.0 °F 28.7 °F 28.4 °F 87% 30.21 in 2.5 mi West 3.5 mph - 0.00 in Snow Light Snow
3:25 PM 32.0 °F - 28.4 °F 87% 30.20 in 1.5 mi Calm Calm - 0.00 in Snow Light Snow
3:42 PM 30.2 °F - 28.4 °F 93% 30.18 in 1.2 mi Calm Calm - 0.00 in Snow Light Snow
3:53 PM 30.9 °F 26.2 °F 28.9 °F 92% 30.17 in 1.0 mi SE 4.6 mph - 0.00 in Snow Light Snow
4:48 PM 30.2 °F 24.3 °F 30.2 °F 100% 30.14 in 2.0 mi ESE 5.8 mph - 0.01 in Snow Light Snow
4:53 PM 30.9 °F 27.5 °F 30.0 °F 96% 30.16 in 2.5 mi East 3.5 mph - 0.01 in Snow Light Snow
5:12 PM 30.2 °F 25.4 °F 30.2 °F 100% 30.14 in 3.0 mi ESE 4.6 mph - 0.01 in Snow Light Snow
5:42 PM 30.2 °F 23.4 °F 30.2 °F 100% 30.14 in 5.0 mi East 6.9 mph - 0.02 in Snow Light Snow
5:53 PM 30.9 °F 25.2 °F 30.0 °F 96% 30.14 in 6.0 mi East 5.8 mph - 0.03 in Snow Light Snow
6:15 PM 30.2 °F 23.4 °F 30.2 °F 100% 30.12 in 6.0 mi East 6.9 mph - 0.00 in Rain Light Freezing Rain
6:53 PM 32.0 °F 26.4 °F 32.0 °F 100% 30.09 in 6.0 mi ESE 5.8 mph - 0.02 in Rain Light Freezing Rain
7:27 PM 33.8 °F 28.6 °F 32.0 °F 93% 30.07 in 2.5 mi ESE 5.8 mph - 0.01 in   Overcast
7:49 PM 33.8 °F 27.0 °F 33.8 °F 100% 30.05 in 3.0 mi ESE 8.1 mph - 0.02 in   Overcast
7:53 PM 33.1 °F 26.1 °F 33.1 °F 100% 30.05 in 3.0 mi SE 8.1 mph - 0.02 in Rain Light Rain
8:37 PM 33.8 °F 30.8 °F 33.8 °F 100% 30.04 in 2.5 mi ESE 3.5 mph - 0.00 in   Overcast
8:48 PM 33.8 °F 30.8 °F 33.8 °F 100% 30.04 in 3.0 mi ESE 3.5 mph - 0.01 in Rain Light Rain
8:53 PM 34.0 °F 28.8 °F 34.0 °F 100% 30.03 in 3.0 mi ESE 5.8 mph - 0.01 in Rain Light Rain
9:00 PM 33.8 °F 29.6 °F 33.8 °F 100% 30.03 in 2.5 mi ESE 4.6 mph - 0.01 in Rain Light Rain
9:09 PM 33.8 °F 30.8 °F 33.8 °F 100% 30.02 in 4.0 mi ESE 3.5 mph - 0.02 in Rain Light Rain
9:53 PM 34.0 °F 31.0 °F 34.0 °F 100% 30.01 in 4.0 mi East 3.5 mph - 0.02 in   Overcast
10:08 PM 33.8 °F 29.6 °F 33.8 °F 100% 29.99 in 2.5 mi NE 4.6 mph - N/A   Overcast
10:27 PM 33.8 °F 29.6 °F 33.8 °F 100% 29.99 in 3.0 mi ENE 4.6 mph - N/A   Overcast
10:32 PM 33.8 °F 28.6 °F 33.8 °F 100% 29.98 in 1.8 mi East 5.8 mph - N/A   Overcast
10:53 PM 34.0 °F - 34.0 °F 100% 29.99 in 1.2 mi Calm Calm - 0.00 in Rain Light Rain
11:31 PM 33.8 °F 30.8 °F 33.8 °F 100% 29.99 in 3.0 mi ENE 3.5 mph - 0.00 in   Overcast
11:50 PM 33.8 °F 29.6 °F 33.8 °F 100% 29.99 in 2.5 mi ENE 4.6 mph - 0.00 in   Overcast
11:53 PM 34.0 °F 31.0 °F 34.0 °F 100% 29.99 in 2.5 mi NE 3.5 mph - 0.00 in   Overcast